1587160819,2020-04-18 00:00,436.00,-33
1587160879,2020-04-18 00:01,438.00,-30
1587160939,2020-04-18 00:02,438.00,-28
1587160999,2020-04-18 00:03,439.00,-30
1587161059,2020-04-18 00:04,438.00,-29
1587161119,2020-04-18 00:05,439.00,-31
1587161179,2020-04-18 00:06,439.00,-30
1587161239,2020-04-18 00:07,438.00,-29
1587161299,2020-04-18 00:08,437.00,-31
1587161359,2020-04-18 00:09,438.00,-31
1587161419,2020-04-18 00:10,435.00,-29
1587161479,2020-04-18 00:11,435.00,-28
1587161539,2020-04-18 00:12,436.00,-30
1587161599,2020-04-18 00:13,439.00,-31
1587161660,2020-04-18 00:14,438.00,-30
1587161720,2020-04-18 00:15,437.00,-33
1587161780,2020-04-18 00:16,439.00,-30
1587161840,2020-04-18 00:17,439.00,-30
1587161900,2020-04-18 00:18,436.00,-28
1587161960,2020-04-18 00:19,436.00,-29
1587162020,2020-04-18 00:20,436.00,-25
1587162080,2020-04-18 00:21,441.00,-28
1587162140,2020-04-18 00:22,438.00,-31
1587162200,2020-04-18 00:23,438.00,-29
1587162260,2020-04-18 00:24,438.00,-29
1587162320,2020-04-18 00:25,436.00,-27
1587162380,2020-04-18 00:26,437.00,-28
1587162441,2020-04-18 00:27,438.00,-29
1587162501,2020-04-18 00:28,437.00,-29
1587162561,2020-04-18 00:29,439.00,-29
1587162621,2020-04-18 00:30,439.00,-30
1587162681,2020-04-18 00:31,438.00,-30
1587162741,2020-04-18 00:32,440.00,-29
1587162801,2020-04-18 00:33,441.00,-29
1587162861,2020-04-18 00:34,439.00,-28
1587162921,2020-04-18 00:35,438.00,-32
1587162981,2020-04-18 00:36,430.00,-28
1587163041,2020-04-18 00:37,431.00,-28
1587163101,2020-04-18 00:38,429.00,-32
1587163161,2020-04-18 00:39,433.00,-28
1587163222,2020-04-18 00:40,430.00,-28
1587163282,2020-04-18 00:41,430.00,-29
1587163342,2020-04-18 00:42,427.00,-28
1587163402,2020-04-18 00:43,429.00,-28
1587163462,2020-04-18 00:44,430.00,-30
1587163522,2020-04-18 00:45,428.00,-30
1587163582,2020-04-18 00:46,427.00,-29
1587163642,2020-04-18 00:47,428.00,-29
1587163702,2020-04-18 00:48,428.00,-29
1587163762,2020-04-18 00:49,428.00,-28
1587163822,2020-04-18 00:50,427.00,-28
1587163882,2020-04-18 00:51,430.00,-30
1587163942,2020-04-18 00:52,430.00,-34
1587164002,2020-04-18 00:53,431.00,-27
1587164062,2020-04-18 00:54,433.00,-28
1587164122,2020-04-18 00:55,429.00,-31
1587164182,2020-04-18 00:56,430.00,-28
1587164242,2020-04-18 00:57,431.00,-30
1587164302,2020-04-18 00:58,431.00,-28
1587164363,2020-04-18 00:59,428.00,-29
1587164423,2020-04-18 01:00,432.00,-32
1587164483,2020-04-18 01:01,431.00,-31
1587164543,2020-04-18 01:02,429.00,-27
1587164603,2020-04-18 01:03,431.00,-31
1587164663,2020-04-18 01:04,430.00,-31
1587164723,2020-04-18 01:05,428.00,-28
1587164783,2020-04-18 01:06,428.00,-34
1587164843,2020-04-18 01:07,430.00,-26
1587164903,2020-04-18 01:08,427.00,-30
1587164963,2020-04-18 01:09,425.00,-32
1587165023,2020-04-18 01:10,427.00,-33
1587165083,2020-04-18 01:11,426.00,-29
1587165143,2020-04-18 01:12,425.00,-30
1587165203,2020-04-18 01:13,423.00,-29
1587165263,2020-04-18 01:14,425.00,-28
1587165323,2020-04-18 01:15,424.00,-29
1587165383,2020-04-18 01:16,424.00,-28
1587165444,2020-04-18 01:17,423.00,-30
1587165504,2020-04-18 01:18,424.00,-31
1587165564,2020-04-18 01:19,423.00,-31
1587165624,2020-04-18 01:20,425.00,-27
1587165684,2020-04-18 01:21,424.00,-29
1587165744,2020-04-18 01:22,423.00,-31
1587165804,2020-04-18 01:23,424.00,-34
1587165864,2020-04-18 01:24,425.00,-31
1587165924,2020-04-18 01:25,425.00,-27
1587165984,2020-04-18 01:26,424.00,-30
1587166044,2020-04-18 01:27,424.00,-28
1587166104,2020-04-18 01:28,424.00,-32
1587166164,2020-04-18 01:29,426.00,-30
1587166224,2020-04-18 01:30,425.00,-29
1587166284,2020-04-18 01:31,425.00,-29
1587166344,2020-04-18 01:32,421.00,-33
1587166404,2020-04-18 01:33,421.00,-28
1587166464,2020-04-18 01:34,422.00,-29
1587166524,2020-04-18 01:35,422.00,-33
1587166585,2020-04-18 01:36,424.00,-30
1587166645,2020-04-18 01:37,423.00,-28
1587166705,2020-04-18 01:38,422.00,-31
1587166765,2020-04-18 01:39,423.00,-29
1587166825,2020-04-18 01:40,422.00,-29
1587166885,2020-04-18 01:41,422.00,-28
1587166945,2020-04-18 01:42,421.00,-29
1587167005,2020-04-18 01:43,420.00,-30
1587167065,2020-04-18 01:44,422.00,-32
1587167125,2020-04-18 01:45,420.00,-31
1587167185,2020-04-18 01:46,420.00,-32
1587167245,2020-04-18 01:47,421.00,-29
1587167305,2020-04-18 01:48,421.00,-33
1587167365,2020-04-18 01:49,423.00,-28
1587167425,2020-04-18 01:50,422.00,-29
1587167485,2020-04-18 01:51,423.00,-30
1587167545,2020-04-18 01:52,419.00,-28
1587167605,2020-04-18 01:53,421.00,-29
1587167665,2020-04-18 01:54,422.00,-29
1587167725,2020-04-18 01:55,422.00,-32
1587167785,2020-04-18 01:56,424.00,-27
1587167846,2020-04-18 01:57,424.00,-29
1587167906,2020-04-18 01:58,421.00,-30
1587167966,2020-04-18 01:59,421.00,-27
1587168026,2020-04-18 02:00,419.00,-32
1587168086,2020-04-18 02:01,421.00,-31
1587168146,2020-04-18 02:02,423.00,-33
1587168206,2020-04-18 02:03,423.00,-31
1587168266,2020-04-18 02:04,420.00,-33
1587168326,2020-04-18 02:05,423.00,-27
1587168386,2020-04-18 02:06,423.00,-27
1587168446,2020-04-18 02:07,422.00,-32
1587168506,2020-04-18 02:08,424.00,-27
1587168566,2020-04-18 02:09,424.00,-31
1587168626,2020-04-18 02:10,422.00,-28
1587168686,2020-04-18 02:11,422.00,-30
1587168746,2020-04-18 02:12,421.00,-31
1587168806,2020-04-18 02:13,423.00,-28
1587168866,2020-04-18 02:14,423.00,-29
1587168926,2020-04-18 02:15,423.00,-29
1587168986,2020-04-18 02:16,425.00,-27
1587169047,2020-04-18 02:17,422.00,-26
1587169107,2020-04-18 02:18,419.00,-29
1587169167,2020-04-18 02:19,419.00,-33
1587169227,2020-04-18 02:20,422.00,-32
1587169287,2020-04-18 02:21,421.00,-30
1587169347,2020-04-18 02:22,423.00,-33
1587169407,2020-04-18 02:23,423.00,-30
1587169467,2020-04-18 02:24,424.00,-29
1587169527,2020-04-18 02:25,423.00,-32
1587169587,2020-04-18 02:26,424.00,-29
1587169647,2020-04-18 02:27,426.00,-33
1587169707,2020-04-18 02:28,424.00,-31
1587169767,2020-04-18 02:29,420.00,-28
1587169827,2020-04-18 02:30,423.00,-33
1587169887,2020-04-18 02:31,423.00,-29
1587169947,2020-04-18 02:32,420.00,-33
1587170007,2020-04-18 02:33,421.00,-28
1587170067,2020-04-18 02:34,424.00,-30
1587170127,2020-04-18 02:35,423.00,-32
1587170187,2020-04-18 02:36,421.00,-28
1587170248,2020-04-18 02:37,422.00,-32
1587170308,2020-04-18 02:38,422.00,-27
1587170368,2020-04-18 02:39,424.00,-28
1587170428,2020-04-18 02:40,421.00,-29
1587170488,2020-04-18 02:41,421.00,-26
1587170548,2020-04-18 02:42,423.00,-31
1587170608,2020-04-18 02:43,421.00,-29
1587170668,2020-04-18 02:44,424.00,-29
1587170728,2020-04-18 02:45,423.00,-27
1587170788,2020-04-18 02:46,423.00,-31
1587170848,2020-04-18 02:47,423.00,-28
1587170908,2020-04-18 02:48,420.00,-27
1587170968,2020-04-18 02:49,423.00,-30
1587171028,2020-04-18 02:50,423.00,-28
1587171088,2020-04-18 02:51,422.00,-27
1587171148,2020-04-18 02:52,423.00,-29
1587171208,2020-04-18 02:53,424.00,-29
1587171268,2020-04-18 02:54,424.00,-31
1587171328,2020-04-18 02:55,424.00,-29
1587171388,2020-04-18 02:56,421.00,-28
1587171448,2020-04-18 02:57,424.00,-27
1587171508,2020-04-18 02:58,421.00,-30
1587171568,2020-04-18 02:59,422.00,-27
1587171628,2020-04-18 03:00,420.00,-29
1587171689,2020-04-18 03:01,422.00,-33
1587171749,2020-04-18 03:02,422.00,-28
1587171809,2020-04-18 03:03,421.00,-28
1587171869,2020-04-18 03:04,423.00,-30
1587171929,2020-04-18 03:05,422.00,-29
1587171989,2020-04-18 03:06,422.00,-28
1587172049,2020-04-18 03:07,422.00,-28
1587172109,2020-04-18 03:08,422.00,-28
1587172169,2020-04-18 03:09,420.00,-28
1587172229,2020-04-18 03:10,424.00,-30
1587172289,2020-04-18 03:11,424.00,-32
1587172349,2020-04-18 03:12,421.00,-26
1587172409,2020-04-18 03:13,423.00,-30
1587172469,2020-04-18 03:14,426.00,-31
1587172529,2020-04-18 03:15,427.00,-29
1587172589,2020-04-18 03:16,426.00,-28
1587172649,2020-04-18 03:17,425.00,-31
1587172709,2020-04-18 03:18,425.00,-30
1587172769,2020-04-18 03:19,428.00,-29
1587172829,2020-04-18 03:20,425.00,-29
1587172890,2020-04-18 03:21,426.00,-32
1587172950,2020-04-18 03:22,426.00,-28
1587173010,2020-04-18 03:23,426.00,-29
1587173070,2020-04-18 03:24,425.00,-28
1587173130,2020-04-18 03:25,424.00,-32
1587173190,2020-04-18 03:26,424.00,-29
1587173250,2020-04-18 03:27,424.00,-28
1587173310,2020-04-18 03:28,425.00,-28
1587173370,2020-04-18 03:29,425.00,-27
1587173430,2020-04-18 03:30,425.00,-29
1587173490,2020-04-18 03:31,426.00,-29
1587173550,2020-04-18 03:32,424.00,-28
1587173610,2020-04-18 03:33,421.00,-26
1587173670,2020-04-18 03:34,421.00,-28
1587173730,2020-04-18 03:35,424.00,-28
1587173790,2020-04-18 03:36,419.00,-30
1587173850,2020-04-18 03:37,421.00,-26
1587173910,2020-04-18 03:38,418.00,-26
1587173971,2020-04-18 03:39,416.00,-27
1587174031,2020-04-18 03:40,416.00,-28
1587174091,2020-04-18 03:41,416.00,-27
1587174151,2020-04-18 03:42,414.00,-28
1587174211,2020-04-18 03:43,415.00,-31
1587174271,2020-04-18 03:44,416.00,-28
1587174331,2020-04-18 03:45,417.00,-29
1587174391,2020-04-18 03:46,416.00,-27
1587174451,2020-04-18 03:47,419.00,-28
1587174511,2020-04-18 03:48,415.00,-30
1587174571,2020-04-18 03:49,416.00,-28
1587174632,2020-04-18 03:50,417.00,-28
1587174692,2020-04-18 03:51,417.00,-28
1587174752,2020-04-18 03:52,416.00,-27
1587174812,2020-04-18 03:53,419.00,-31
1587174872,2020-04-18 03:54,418.00,-30
1587174932,2020-04-18 03:55,420.00,-29
1587174992,2020-04-18 03:56,421.00,-28
1587175052,2020-04-18 03:57,418.00,-28
1587175112,2020-04-18 03:58,419.00,-29
1587175172,2020-04-18 03:59,419.00,-28
1587175232,2020-04-18 04:00,418.00,-28
1587175293,2020-04-18 04:01,419.00,-32
1587175353,2020-04-18 04:02,419.00,-29
1587175413,2020-04-18 04:03,417.00,-29
1587175473,2020-04-18 04:04,419.00,-29
1587175533,2020-04-18 04:05,420.00,-30
1587175593,2020-04-18 04:06,421.00,-36
1587175653,2020-04-18 04:07,422.00,-35
1587175713,2020-04-18 04:08,423.00,-37
1587175773,2020-04-18 04:09,423.00,-37
1587175833,2020-04-18 04:10,423.00,-30
1587175893,2020-04-18 04:11,419.00,-28
1587175953,2020-04-18 04:12,421.00,-29
1587176013,2020-04-18 04:13,420.00,-27
1587176073,2020-04-18 04:14,420.00,-31
1587176133,2020-04-18 04:15,421.00,-26
1587176193,2020-04-18 04:16,420.00,-33
1587176253,2020-04-18 04:17,418.00,-31
1587176313,2020-04-18 04:18,419.00,-29
1587176374,2020-04-18 04:19,417.00,-29
1587176434,2020-04-18 04:20,421.00,-30
1587176494,2020-04-18 04:21,418.00,-28
1587176554,2020-04-18 04:22,417.00,-28
1587176614,2020-04-18 04:23,416.00,-27
1587176674,2020-04-18 04:24,417.00,-28
1587176734,2020-04-18 04:25,419.00,-30
1587176794,2020-04-18 04:26,418.00,-27
1587176854,2020-04-18 04:27,416.00,-27
1587176914,2020-04-18 04:28,418.00,-28
1587176974,2020-04-18 04:29,417.00,-32
1587177034,2020-04-18 04:30,418.00,-29
1587177094,2020-04-18 04:31,418.00,-26
1587177154,2020-04-18 04:32,416.00,-30
1587177214,2020-04-18 04:33,417.00,-31
1587177274,2020-04-18 04:34,416.00,-29
1587177334,2020-04-18 04:35,417.00,-28
1587177394,2020-04-18 04:36,418.00,-30
1587177454,2020-04-18 04:37,416.00,-29
1587177514,2020-04-18 04:38,418.00,-28
1587177574,2020-04-18 04:39,417.00,-27
1587177635,2020-04-18 04:40,417.00,-27
1587177695,2020-04-18 04:41,415.00,-32
1587177755,2020-04-18 04:42,416.00,-28
1587177815,2020-04-18 04:43,415.00,-29
1587177875,2020-04-18 04:44,414.00,-31
1587177935,2020-04-18 04:45,416.00,-29
1587177995,2020-04-18 04:46,419.00,-32
1587178055,2020-04-18 04:47,417.00,-28
1587178115,2020-04-18 04:48,415.00,-28
1587178175,2020-04-18 04:49,415.00,-28
1587178235,2020-04-18 04:50,415.00,-30
1587178295,2020-04-18 04:51,414.00,-29
1587178355,2020-04-18 04:52,416.00,-30
1587178415,2020-04-18 04:53,416.00,-30
1587178475,2020-04-18 04:54,416.00,-27
1587178535,2020-04-18 04:55,417.00,-27
1587178595,2020-04-18 04:56,414.00,-30
1587178655,2020-04-18 04:57,417.00,-30
1587178715,2020-04-18 04:58,415.00,-28
1587178775,2020-04-18 04:59,417.00,-33
1587178836,2020-04-18 05:00,417.00,-31
1587178896,2020-04-18 05:01,420.00,-28
1587178956,2020-04-18 05:02,420.00,-27
1587179016,2020-04-18 05:03,418.00,-26
1587179076,2020-04-18 05:04,419.00,-29
1587179136,2020-04-18 05:05,415.00,-31
1587179196,2020-04-18 05:06,417.00,-28
1587179256,2020-04-18 05:07,418.00,-30
1587179316,2020-04-18 05:08,419.00,-31
1587179376,2020-04-18 05:09,414.00,-28
1587179436,2020-04-18 05:10,416.00,-27
1587179496,2020-04-18 05:11,418.00,-27
1587179556,2020-04-18 05:12,419.00,-28
1587179617,2020-04-18 05:13,419.00,-31
1587179677,2020-04-18 05:14,416.00,-30
1587179737,2020-04-18 05:15,414.00,-31
1587179797,2020-04-18 05:16,417.00,-30
1587179857,2020-04-18 05:17,416.00,-31
1587179917,2020-04-18 05:18,418.00,-30
1587179977,2020-04-18 05:19,416.00,-28
1587180037,2020-04-18 05:20,418.00,-29
1587180097,2020-04-18 05:21,418.00,-30
1587180157,2020-04-18 05:22,419.00,-30
1587180217,2020-04-18 05:23,418.00,-30
1587180277,2020-04-18 05:24,418.00,-30
1587180338,2020-04-18 05:25,418.00,-28
1587180398,2020-04-18 05:26,417.00,-27
1587180458,2020-04-18 05:27,418.00,-30
1587180518,2020-04-18 05:28,424.00,-31
1587180578,2020-04-18 05:29,422.00,-28
1587180638,2020-04-18 05:30,420.00,-28
1587180698,2020-04-18 05:31,421.00,-31
1587180758,2020-04-18 05:32,424.00,-26
1587180818,2020-04-18 05:33,419.00,-33
1587180878,2020-04-18 05:34,420.00,-32
1587180938,2020-04-18 05:35,419.00,-29
1587180998,2020-04-18 05:36,419.00,-30
1587181058,2020-04-18 05:37,417.00,-30
1587181119,2020-04-18 05:38,420.00,-28
1587181179,2020-04-18 05:39,419.00,-30
1587181239,2020-04-18 05:40,419.00,-28
1587181299,2020-04-18 05:41,417.00,-28
1587181359,2020-04-18 05:42,416.00,-27
1587181419,2020-04-18 05:43,415.00,-28
1587181479,2020-04-18 05:44,417.00,-26
1587181539,2020-04-18 05:45,417.00,-33
1587181599,2020-04-18 05:46,418.00,-27
1587181659,2020-04-18 05:47,420.00,-29
1587181719,2020-04-18 05:48,419.00,-29
1587181779,2020-04-18 05:49,420.00,-32
1587181839,2020-04-18 05:50,420.00,-33
1587181900,2020-04-18 05:51,421.00,-28
1587181960,2020-04-18 05:52,418.00,-32
1587182020,2020-04-18 05:53,419.00,-27
1587182080,2020-04-18 05:54,418.00,-30
1587182140,2020-04-18 05:55,416.00,-29
1587182200,2020-04-18 05:56,418.00,-31
1587182260,2020-04-18 05:57,422.00,-32
1587182320,2020-04-18 05:58,421.00,-31
1587182380,2020-04-18 05:59,423.00,-32
1587182440,2020-04-18 06:00,423.00,-31
1587182500,2020-04-18 06:01,423.00,-30
1587182560,2020-04-18 06:02,422.00,-29
1587182620,2020-04-18 06:03,424.00,-29
1587182681,2020-04-18 06:04,423.00,-32
1587182741,2020-04-18 06:05,422.00,-32
1587182801,2020-04-18 06:06,421.00,-31
1587182861,2020-04-18 06:07,421.00,-29
1587182921,2020-04-18 06:08,419.00,-29
1587182981,2020-04-18 06:09,418.00,-30
1587183041,2020-04-18 06:10,419.00,-32
1587183101,2020-04-18 06:11,421.00,-27
1587183161,2020-04-18 06:12,422.00,-34
1587183221,2020-04-18 06:13,422.00,-32
1587183281,2020-04-18 06:14,419.00,-31
1587183341,2020-04-18 06:15,420.00,-30
1587183401,2020-04-18 06:16,419.00,-29
1587183461,2020-04-18 06:17,420.00,-29
1587183522,2020-04-18 06:18,420.00,-28
1587183582,2020-04-18 06:19,420.00,-29
1587183642,2020-04-18 06:20,421.00,-31
1587183702,2020-04-18 06:21,420.00,-28
1587183762,2020-04-18 06:22,420.00,-30
1587183822,2020-04-18 06:23,419.00,-33
1587183882,2020-04-18 06:24,420.00,-29
1587183942,2020-04-18 06:25,418.00,-32
1587184002,2020-04-18 06:26,421.00,-30
1587184062,2020-04-18 06:27,422.00,-29
1587184122,2020-04-18 06:28,421.00,-28
1587184182,2020-04-18 06:29,421.00,-29
1587184242,2020-04-18 06:30,419.00,-28
1587184302,2020-04-18 06:31,420.00,-29
1587184362,2020-04-18 06:32,420.00,-28
1587184422,2020-04-18 06:33,420.00,-28
1587184483,2020-04-18 06:34,419.00,-28
1587184543,2020-04-18 06:35,419.00,-29
1587184603,2020-04-18 06:36,419.00,-32
1587184663,2020-04-18 06:37,421.00,-29
1587184723,2020-04-18 06:38,419.00,-29
1587184783,2020-04-18 06:39,420.00,-29
1587184843,2020-04-18 06:40,418.00,-28
1587184903,2020-04-18 06:41,418.00,-29
1587184963,2020-04-18 06:42,418.00,-28
1587185026,2020-04-18 06:43,420.00,-30
1587185086,2020-04-18 06:44,419.00,-28
1587185146,2020-04-18 06:45,421.00,-30
1587185206,2020-04-18 06:46,419.00,-30
1587185266,2020-04-18 06:47,420.00,-27
1587185326,2020-04-18 06:48,417.00,-29
1587185387,2020-04-18 06:49,417.00,-29
1587185447,2020-04-18 06:50,420.00,-26
1587185507,2020-04-18 06:51,419.00,-29
1587185567,2020-04-18 06:52,417.00,-32
1587185627,2020-04-18 06:53,419.00,-28
1587185687,2020-04-18 06:54,419.00,-28
1587185747,2020-04-18 06:55,419.00,-27
1587185807,2020-04-18 06:56,420.00,-29
1587185867,2020-04-18 06:57,419.00,-28
1587185927,2020-04-18 06:58,418.00,-27
1587185988,2020-04-18 06:59,417.00,-30
1587186048,2020-04-18 07:00,419.00,-29
1587186108,2020-04-18 07:01,421.00,-29
1587186168,2020-04-18 07:02,420.00,-26
1587186228,2020-04-18 07:03,420.00,-30
1587186288,2020-04-18 07:04,420.00,-29
1587186348,2020-04-18 07:05,418.00,-29
1587186408,2020-04-18 07:06,417.00,-30
1587186468,2020-04-18 07:07,418.00,-30
1587186528,2020-04-18 07:08,420.00,-26
1587186588,2020-04-18 07:09,419.00,-31
1587186649,2020-04-18 07:10,419.00,-31
1587186709,2020-04-18 07:11,418.00,-30
1587186769,2020-04-18 07:12,415.00,-29
1587186829,2020-04-18 07:13,416.00,-29
1587186889,2020-04-18 07:14,418.00,-33
1587186949,2020-04-18 07:15,417.00,-30
1587187009,2020-04-18 07:16,417.00,-30
1587187069,2020-04-18 07:17,419.00,-28
1587187129,2020-04-18 07:18,419.00,-33
1587187190,2020-04-18 07:19,417.00,-28
1587187250,2020-04-18 07:20,416.00,-29
1587187310,2020-04-18 07:21,418.00,-29
1587187370,2020-04-18 07:22,418.00,-33
1587187430,2020-04-18 07:23,418.00,-30
1587187490,2020-04-18 07:24,416.00,-27
1587187550,2020-04-18 07:25,416.00,-31
1587187610,2020-04-18 07:26,416.00,-28
1587187670,2020-04-18 07:27,419.00,-27
1587187730,2020-04-18 07:28,415.00,-28
1587187790,2020-04-18 07:29,416.00,-29
1587187850,2020-04-18 07:30,417.00,-27
1587187910,2020-04-18 07:31,416.00,-26
1587187970,2020-04-18 07:32,416.00,-28
1587188030,2020-04-18 07:33,417.00,-29
1587188090,2020-04-18 07:34,415.00,-30
1587188150,2020-04-18 07:35,416.00,-28
1587188210,2020-04-18 07:36,419.00,-27
1587188271,2020-04-18 07:37,417.00,-29
1587188331,2020-04-18 07:38,416.00,-28
1587188391,2020-04-18 07:39,415.00,-32
1587188451,2020-04-18 07:40,414.00,-31
1587188511,2020-04-18 07:41,415.00,-29
1587188571,2020-04-18 07:42,416.00,-31
1587188631,2020-04-18 07:43,418.00,-28
1587188692,2020-04-18 07:44,416.00,-31
1587188752,2020-04-18 07:45,418.00,-31
1587188812,2020-04-18 07:46,417.00,-30
1587188872,2020-04-18 07:47,415.00,-28
1587188932,2020-04-18 07:48,413.00,-31
1587188992,2020-04-18 07:49,419.00,-30
1587189052,2020-04-18 07:50,417.00,-35
1587189112,2020-04-18 07:51,417.00,-30
1587189172,2020-04-18 07:52,418.00,-35
1587189232,2020-04-18 07:53,417.00,-29
1587189292,2020-04-18 07:54,418.00,-28
1587189353,2020-04-18 07:55,419.00,-32
1587189413,2020-04-18 07:56,416.00,-28
1587189473,2020-04-18 07:57,418.00,-29
1587189533,2020-04-18 07:58,416.00,-29
1587189593,2020-04-18 07:59,416.00,-28
1587189653,2020-04-18 08:00,419.00,-29
1587189713,2020-04-18 08:01,420.00,-29
1587189774,2020-04-18 08:02,420.00,-33
1587189834,2020-04-18 08:03,417.00,-32
1587189894,2020-04-18 08:04,418.00,-30
1587189954,2020-04-18 08:05,419.00,-29
1587190014,2020-04-18 08:06,419.00,-26
1587190074,2020-04-18 08:07,417.00,-30
1587190134,2020-04-18 08:08,420.00,-27
1587190194,2020-04-18 08:09,418.00,-29
1587190254,2020-04-18 08:10,416.00,-28
1587190314,2020-04-18 08:11,414.00,-33
1587190375,2020-04-18 08:12,414.00,-30
1587190435,2020-04-18 08:13,415.00,-35
1587190495,2020-04-18 08:14,416.00,-29
1587190555,2020-04-18 08:15,417.00,-29
1587190615,2020-04-18 08:16,415.00,-30
1587190675,2020-04-18 08:17,417.00,-30
1587190735,2020-04-18 08:18,416.00,-32
1587190795,2020-04-18 08:19,417.00,-29
1587190855,2020-04-18 08:20,416.00,-27
1587190915,2020-04-18 08:21,420.00,-31
1587190975,2020-04-18 08:22,415.00,-34
1587191036,2020-04-18 08:23,417.00,-31
1587191096,2020-04-18 08:24,417.00,-31
1587191156,2020-04-18 08:25,417.00,-29
1587191216,2020-04-18 08:26,417.00,-29
1587191276,2020-04-18 08:27,416.00,-29
1587191336,2020-04-18 08:28,417.00,-27
1587191397,2020-04-18 08:29,417.00,-32
1587191457,2020-04-18 08:30,418.00,-30
1587191517,2020-04-18 08:31,416.00,-29
1587191577,2020-04-18 08:32,416.00,-31
1587191637,2020-04-18 08:33,417.00,-29
1587191697,2020-04-18 08:34,418.00,-31
1587191758,2020-04-18 08:35,418.00,-29
1587191818,2020-04-18 08:36,417.00,-32
1587191878,2020-04-18 08:37,415.00,-29
1587191938,2020-04-18 08:38,417.00,-29
1587191998,2020-04-18 08:39,419.00,-28
1587192058,2020-04-18 08:40,418.00,-32
1587192118,2020-04-18 08:41,419.00,-31
1587192178,2020-04-18 08:42,416.00,-27
1587192238,2020-04-18 08:43,419.00,-32
1587192299,2020-04-18 08:44,417.00,-29
1587192359,2020-04-18 08:45,418.00,-31
1587192419,2020-04-18 08:46,416.00,-31
1587192479,2020-04-18 08:47,417.00,-27
1587192539,2020-04-18 08:48,427.00,-29
1587192599,2020-04-18 08:49,427.00,-29
1587192659,2020-04-18 08:50,426.00,-28
1587192719,2020-04-18 08:51,424.00,-30
1587192779,2020-04-18 08:52,426.00,-30
1587192839,2020-04-18 08:53,427.00,-30
1587192899,2020-04-18 08:54,428.00,-28
1587192959,2020-04-18 08:55,429.00,-32
1587193019,2020-04-18 08:56,427.00,-30
1587193079,2020-04-18 08:57,427.00,-30
1587193139,2020-04-18 08:58,428.00,-27
1587193199,2020-04-18 08:59,426.00,-31
1587193260,2020-04-18 09:01,428.00,-32
1587193320,2020-04-18 09:02,425.00,-31
1587193380,2020-04-18 09:03,426.00,-30
1587193440,2020-04-18 09:04,425.00,-30
1587193500,2020-04-18 09:05,426.00,-28
1587193560,2020-04-18 09:06,425.00,-31
1587193620,2020-04-18 09:07,424.00,-28
1587193680,2020-04-18 09:08,426.00,-29
1587193740,2020-04-18 09:09,428.00,-31
1587193800,2020-04-18 09:10,427.00,-33
1587193860,2020-04-18 09:11,427.00,-32
1587193920,2020-04-18 09:12,426.00,-30
1587193980,2020-04-18 09:13,427.00,-30
1587194040,2020-04-18 09:14,426.00,-27
1587194100,2020-04-18 09:15,426.00,-29
1587194161,2020-04-18 09:16,426.00,-31
1587194221,2020-04-18 09:17,425.00,-32
1587194281,2020-04-18 09:18,425.00,-27
1587194341,2020-04-18 09:19,424.00,-29
1587194401,2020-04-18 09:20,425.00,-28
1587194461,2020-04-18 09:21,424.00,-28
1587194521,2020-04-18 09:22,425.00,-29
1587194581,2020-04-18 09:23,424.00,-30
1587194641,2020-04-18 09:24,427.00,-31
1587194701,2020-04-18 09:25,427.00,-33
1587194761,2020-04-18 09:26,426.00,-29
1587194821,2020-04-18 09:27,425.00,-30
1587194882,2020-04-18 09:28,424.00,-31
1587194942,2020-04-18 09:29,427.00,-34
1587195002,2020-04-18 09:30,428.00,-31
1587195062,2020-04-18 09:31,423.00,-29
1587195122,2020-04-18 09:32,426.00,-29
1587195182,2020-04-18 09:33,426.00,-31
1587195242,2020-04-18 09:34,426.00,-29
1587195302,2020-04-18 09:35,424.00,-31
1587195362,2020-04-18 09:36,426.00,-30
1587195422,2020-04-18 09:37,425.00,-28
1587195482,2020-04-18 09:38,425.00,-29
1587195542,2020-04-18 09:39,426.00,-29
1587195602,2020-04-18 09:40,425.00,-27
1587195663,2020-04-18 09:41,423.00,-33
1587195723,2020-04-18 09:42,424.00,-30
1587195783,2020-04-18 09:43,422.00,-32
1587195843,2020-04-18 09:44,423.00,-28
1587195903,2020-04-18 09:45,425.00,-28
1587195963,2020-04-18 09:46,426.00,-30
1587196023,2020-04-18 09:47,434.00,-28
1587196083,2020-04-18 09:48,435.00,-29
1587196143,2020-04-18 09:49,433.00,-28
1587196203,2020-04-18 09:50,433.00,-33
1587196263,2020-04-18 09:51,432.00,-30
1587196324,2020-04-18 09:52,434.00,-28
1587196384,2020-04-18 09:53,433.00,-33
1587196444,2020-04-18 09:54,436.00,-30
1587196504,2020-04-18 09:55,439.00,-34
1587196564,2020-04-18 09:56,439.00,-29
1587196624,2020-04-18 09:57,438.00,-30
1587196684,2020-04-18 09:58,436.00,-30
1587196744,2020-04-18 09:59,436.00,-31
1587196805,2020-04-18 10:00,436.00,-31
1587196865,2020-04-18 10:01,436.00,-27
1587196925,2020-04-18 10:02,437.00,-34
1587196985,2020-04-18 10:03,436.00,-30
1587197045,2020-04-18 10:04,437.00,-30
1587197105,2020-04-18 10:05,440.00,-31
1587197166,2020-04-18 10:06,441.00,-29
1587197226,2020-04-18 10:07,439.00,-29
1587197286,2020-04-18 10:08,440.00,-31
1587197346,2020-04-18 10:09,443.00,-29
1587197406,2020-04-18 10:10,440.00,-30
1587197466,2020-04-18 10:11,437.00,-32
1587197526,2020-04-18 10:12,435.00,-27
1587197586,2020-04-18 10:13,437.00,-29
1587197647,2020-04-18 10:14,437.00,-32
1587197707,2020-04-18 10:15,436.00,-28